Sterling, IL

2:11 AM CST on February 14, 2016 (GMT -0600)
SaukValleyWeather.com (2 Miles N Sterling) | | Change Station
CLOSE
Current Station
Personal Weather Station
Location: Sterling, IL
Elevation: 666 ft
Nearby Weather Stations
Active Advisory: Winter Weather Advisory

Elev 666 ft 41.82 °N, 89.67 °W | Updated 11 seconds ago

Overcast
Overcast
16.0 °F
Feels Like 8 °F
N
5.0
Wind Variable Wind from SE
Gusts 6.0 mph

Today
High -- | Low -- °F
--% Chance of Precip.
Yesterday
High -- | Low -- °F
Precip. -- in
Pressure 30.38 in
Visibility 10.0 miles
Clouds Mostly Cloudy 7000 ft
Overcast 7500 ft
Windchill 8 °F
Dew Point 6 °F
Humidity 64%
Rainfall 0.00 in
Snow Depth Not available.
6:56 AM 5:30 PM
Waxing Crescent, 39% visible
METAR KSQI 140755Z 11007KT 10SM BKN070 OVC075 M09/M18 A3038 RMK AO1
Pressure 30.38 in
Visibility 10.0 miles
Clouds Mostly Cloudy 7000 ft
Overcast 7500 ft
Windchill 8 °F
Dew Point 6 °F
Humidity 64%
Rainfall 0.00 in
Snow Depth Not available.
6:56 AM 5:30 PM
Waxing Crescent, 39% visible
METAR KSQI 140755Z 11007KT 10SM BKN070 OVC075 M09/M18 A3038 RMK AO1

10-Day Weather Forecast

Almanac

Astronomy

Feb. 14, 2016 Rise Set
Actual Time
Civil Twilight
Nautical Twilight
Astronomical Twilight
Moon
Length of Visible Light
Length of Day
Tomorrow will be .
, % of the Moon is Illuminated

Today's Extremes

State Highs State Lows

Community

WunderPhotos

Upload Photos

1,892,757 photos uploaded!

WunderBlog® & News

Nearby

Air Quality

  Air Quality AQ Index Pollutant
Not available.

Snow Depth

Station Depth Elevation

Earthquake Activity

City Distance Mag. Time & Date
Minimum magnitude displayed is 2.5.

Coastal Water Temperatures

Place Temperature

Stations

Nearby Weather Stations

Station Location Temp. Windchill Dew Point Humidity Wind Precip. Elev Updated Type
                   

Watches & Warnings

Winter Weather Advisory
Issued: 7:52 PM CST Feb. 13, 2016 – National Weather Service

... Winter Weather Advisory now in effect from 3 am to 6 PM CST
Sunday...

* timing... early Sunday morning continuing through the day on
Sunday.

* Snow accumulations... 2 to 5 inches.

* Wind... southeast 10 to 15 mph with gusts up to 25 mph overnight
and much of Sunday morning.

* Visibilities... less than a mile in the heavier snow at times.

* Impacts... snow covered and hazardous roads and low visibility
in heavier snowfall.

Precautionary/preparedness actions...

A Winter Weather Advisory for snow means that periods of snow
will cause travel difficulties. Be prepared for slick... snow
covered roads and limited visibilities... and be careful while
driving.